Weather History for CWZL - November, 2013

Change the Weather History Date:

Sunday, November 24, 2013

  Actual Average Record
Temperature  
Mean Temperature 46 °F -  
Max Temperature 48 °F - - ()
Min Temperature 44 °F - - ()
Degree Days  
Heating Degree Days 19    
Moisture  
Dew Point 45 °F    
Average Humidity 91    
Maximum Humidity 97    
Minimum Humidity 85    
Precipitation  
Precipitation 0.00 in - - ()
Sea Level Pressure  
Sea Level Pressure 30.11 in    
Wind  
Wind Speed 16 mph ()    
Max Wind Speed 26 mph    
Max Gust Speed -    
T = Trace of Precipitation, MM = Missing Value Source: Averaged Metar Reports

Daily Weather History Graph

Daily Weather History Graph

Search for Another Location

Airport or City:

Trip Planner

Search our weather history database for the weather conditions in past years. The results will help you decide how hot, cold, wet, or windy it might be!

Date:

Astronomy

Nov. 24, 2013 Rise Set
Actual Time 8:26 AM PST 4:39 PM PST
Civil Twilight 7:46 AM PST 5:19 PM PST
Nautical Twilight 7:03 AM PST 6:02 PM PST
Astronomical Twilight 6:22 AM PST 6:43 PM PST
Moon 11:40 PM PST (11/24) 12:52 PM PST (11/24)
Length of Visible Light 9h 32m
Length of Day
8h 12m
Waning Gibbous, 59% of the Moon is Illuminated
Nov 24
Waning Gibbous
Nov 25
Last Quarter
Dec 2
New
Dec 9
First Quarter
Dec 17
Full

Hourly Weather History & Observations

Time (PST) Temp. Windchill Dew Point Humidity Pressure Visibility Wind Dir Wind Speed Gust Speed Precip Events Conditions
12:00 AM 44.6 °F 37.8 °F 43.7 °F 97% 30.18 in - North 15.0 mph - N/A   Unknown
1:00 AM 44.6 °F 38.4 °F 43.7 °F 97% 30.18 in - North 12.7 mph - N/A   Unknown
2:00 AM 44.1 °F 37.1 °F 43.2 °F 97% 30.17 in - North 15.0 mph - N/A   Unknown
3:00 AM 44.8 °F 40.4 °F 44.1 °F 97% 30.18 in - North 8.1 mph - N/A   Unknown
4:00 AM 47 °F - 44 °F 87% 30.16 in - SSE 18.4 mph - -  
4:00 AM 46.9 °F - 44.4 °F 91% 30.16 in - SSE 18.4 mph - N/A   Unknown
5:00 AM 47.3 °F - 43.9 °F 88% 30.15 in - SSE 15.0 mph - N/A   Unknown
6:00 AM 48.0 °F - 44.4 °F 87% 30.14 in - SE 13.8 mph - N/A   Unknown
7:00 AM 48.2 °F - 43.9 °F 85% 30.13 in - SE 18.4 mph - N/A   Unknown
8:00 AM 47.7 °F - 44.1 °F 87% 30.14 in - SSE 18.4 mph - N/A   Unknown
9:00 AM 46.2 °F 40.8 °F 43.3 °F 90% 30.14 in - SSE 11.5 mph - N/A   Unknown
10:00 AM 46 °F - 43 °F 85% 30.12 in - SE 18.4 mph - -  
10:00 AM 45.7 °F 38.3 °F 43.0 °F 90% 30.12 in - SE 18.4 mph - N/A   Unknown
11:00 AM 46.6 °F - 43.5 °F 89% 30.13 in - SE 21.9 mph - N/A   Unknown
12:00 PM 46.2 °F 38.1 °F 44.8 °F 95% 30.11 in - SSE 23.0 mph - N/A   Unknown
1:00 PM 47.7 °F - 44.2 °F 88% 30.09 in - SSE 21.9 mph - N/A   Unknown
2:00 PM 47.8 °F - 44.4 °F 88% 30.09 in - SSE 24.2 mph - N/A   Unknown
3:00 PM 47.8 °F - 45.5 °F 92% 30.08 in - SSE 23.0 mph - N/A   Unknown
4:00 PM 48 °F - 46 °F 88% 30.06 in - SSE 25.3 mph - -  
4:00 PM 48.0 °F - 45.5 °F 91% 30.06 in - SSE 25.3 mph - N/A   Unknown
5:00 PM 48.4 °F - 46.0 °F 92% 30.06 in - SSE 24.2 mph - N/A   Unknown
6:00 PM 48.6 °F - 46.2 °F 92% 30.06 in - SSE 26.5 mph - N/A   Unknown
7:00 PM 48.6 °F - 46.2 °F 92% 30.06 in - SSE 24.2 mph - N/A   Unknown
8:00 PM 48.6 °F - 46.2 °F 92% 30.04 in - SSE 20.7 mph - N/A   Unknown
9:00 PM 48.6 °F - 46.2 °F 92% 30.04 in - SSE 24.2 mph - N/A   Unknown
10:00 PM 48 °F - 46 °F 89% 30.05 in - SSE 20.7 mph - -  
10:00 PM 48.4 °F - 45.9 °F 91% 30.05 in - SSE 20.7 mph - N/A   Unknown
11:00 PM 48.6 °F - 46.0 °F 91% 30.06 in - SSE 19.6 mph - N/A   Unknown